Starlink 2147

operational
NORAD ID: 47736 Int'l Des: 2021-017 Owner: SPXS Country: US Constellation: starlink
LEOCIRCULARSTARLINK_TYPE

Starlink 2147について

説明を読み込み中...

リアルタイム位置

3D地球を読み込み中...

次回通過

高度履歴

Altitude vs Time

uPlot chart will show altitude changes over time

軌道要素

1 47736U 21017Q 25258.02248356 -.00000080 00000-0 13519-4 0 9992
2 47736 53.0497 270.2193 0001198 77.5160 282.5963 15.06399571251443
Epoch: Sep 15, 2025 • Age: 13 hours

現在のステータス

高度 558.1 km
速度 7.58 km/s
衛星直下点 -33.27°S, 47.42°E
打ち上げ日 Mar 4, 2021
運用期間 4.5 years
タイプ internet

技術仕様

分類 Payload
質量 260.00 kg
乾燥質量 248.00 kg
総質量 260.00 kg
長さ 0.20 m
直径 2.80 m
スパン 9.00 m
形状 Box + pan
製造者 SPXS
バスタイプ Starlink
フェーズステータス In Orbit
所有者/国 SPXS/US

大規模コンステレーション

Loading constellations...